Location: Maiden
(35.5760°N, 81.2120°W)
Time: 14:30:16
(UTC-04:00)

Daily predictions for brighter satellites

Satellite Brightness Start Highest point End
(mag) Time Altitude Azimuth Time Altitude Azimuth Time Altitude Azimuth
Tiangong 2 3.2 20:57:57 10° WNW 21:00:46 28° NNW 21:03:34 10° NE
BREEZE-M DEB (TANK) 4.4 20:58:25 10° NW 21:02:32 82° NNE 21:17:47 10° ESE
Cosmos 1680 Rocket 3.5 20:57:52 10° SSW 21:03:05 87° ESE 21:08:19 10° NNE
H-2A R/B 4.5 13:00:09 10° SW 21:03:57 64° SSW 21:11:52 10° ESE
Meteor 1-19 Rocket 4.3 20:58:46 10° S 21:04:32 70° E 21:10:13 10° NNE
Helios 1B rocket 2.9 21:00:39 10° NNE 21:04:33 40° E 21:08:27 10° S
Aureole 1 Rocket 2.1 21:02:15 10° S 21:05:35 73° ESE 21:08:35 10° NNE
Cosmos 1346 2.7 21:03:43 10° S 21:06:27 79° E 21:09:13 10° N
USA 81 4.1 21:03:49 10° S 21:09:05 88° E 21:14:24 10° N
Envisat 3.3 21:04:53 10° SSE 21:09:46 50° ENE 21:14:40 10° N
ASTRO E2 4.2 21:11:10 10° WSW 21:14:27 25° SSW 21:17:41 10° SE
Cosmos 2082 Rocket 3.6 21:10:49 10° SE 21:14:32 18° E 21:18:14 10° ENE
SAR-Lupe-4 4.4 21:11:38 10° SE 21:14:54 34° ENE 21:18:12 10° N
DNEPR-1 R/B 3.7 21:11:30 10° NNW 21:15:47 70° ENE 21:20:35 10° SE
COSMOS 2406 4.1 21:12:16 10° SW 21:17:52 56° WNW 21:23:28 10° NNE
Okean 1-7 Rocket 3.9 21:17:11 10° SSE 21:21:27 48° E 21:25:47 10° NNE
YAOGAN 6 3.8 21:19:55 12° SE 21:22:24 25° ENE 21:25:22 10° NNE
Okean 2 4.2 21:20:39 10° SSE 21:24:17 32° E 21:27:55 10° NNE
Cosmos 1743 2.9 21:20:48 10° N 21:24:42 75° W 21:28:35 10° S
Cosmos 1025 Rocket 3.2 21:25:24 10° S 21:29:32 51° E 21:33:41 10° NNE
CZ-4B DEB 2.8 21:28:46 15° SSE 21:31:05 50° ENE 21:34:00 10° N
SAR-Lupe-1 4.4 21:28:11 13° SSE 21:31:07 48° ENE 21:34:36 10° N
Cosmos 405 3.0 21:35:32 10° N 21:39:03 60° E 21:41:35 17° SSE
USA 186 3.5 21:36:30 10° SSW 21:39:22 30° W 21:42:09 10° NW
COSMOS 2487 3.4 21:37:47 17° SSE 21:39:43 28° E 21:42:50 10° NE
Cosmos 1666 2.9 21:38:20 10° NNW 21:42:04 69° W 21:45:47 10° S
CENTAUR R/B 3.8 21:35:58 10° NW 21:43:47 54° WSW 21:51:55 10° S
ERS-1 Rocket 3.4 21:41:27 17° SE 21:44:56 44° ENE 21:49:41 10° N
SJ-11-01 4.3 21:40:56 10° SSE 21:45:37 85° WSW 21:50:21 10° NNW
Meteor 2-9 Rocket 4.2 21:41:16 10° N 21:46:50 86° E 21:52:21 11° S
Cosmos 1833 Rocket 3.3 21:42:25 10° SSE 21:47:18 33° ESE 21:52:17 10° NE
Cosmos 1238 Rocket 4.2 21:42:21 10° S 21:49:07 84° W 21:55:36 10° N
CRYOSAT 2 4.4 21:45:53 14° SSE 21:49:58 66° E 21:54:47 10° N
ISS -0.5 21:48:51 10° NW 21:50:22 12° NNW 21:51:52 10° N
Cosmos 1371 Rocket 4.0 21:45:09 10° NNW 21:50:27 70° ENE 21:54:08 20° SSE
OAO 2 Rocket 3.2 21:46:29 10° W 21:51:24 72° S 21:54:39 21° ESE
Cosmos 2058 Rocket 4.1 21:53:09 10° NNE 21:57:03 29° ENE 21:58:30 24° ESE
Cosmos 2181 Rocket 4.2 21:58:24 15° SSE 22:03:33 55° E 22:09:40 10° NNE
ASTEX 1 3.4 22:00:40 14° S 22:04:54 81° W 22:09:49 10° N
Cosmos 1939 Rocket 3.8 22:01:45 12° S 22:05:08 43° W 22:08:50 10° NNW
Cosmos 1437 Rocket 2.6 22:03:39 10° N 22:07:31 81° E 22:09:19 31° SSE
Intercosmos 24 3.6 22:05:59 10° N 22:09:34 79° W 22:11:24 27° S
Cosmos 1515 3.5 22:09:19 25° S 22:11:25 82° E 22:15:13 10° N
H-2A R/B 4.4 22:11:41 11° ENE 22:12:29 12° ENE 22:14:04 10° NE
PSLV R/B 3.2 22:13:47 10° WNW 22:16:50 56° SSW 22:16:58 55° SSW
Hubble Space Telescope 2.4 22:15:00 10° SW 22:17:02 20° SSW 22:17:02 20° SSW
Cosmos 1626 Rocket 4.5 22:21:47 30° E 22:21:47 30° E 22:25:29 10° NNE
Meteor 2-19 Rocket 4.4 22:16:41 10° N 22:22:51 86° E 22:26:34 26° S
ARGOS 3.3 22:20:51 33° SE 22:23:10 59° ENE 22:28:31 10° N
Cosmos 1980 Rocket 3.8 22:19:45 10° N 22:23:52 20° ENE 22:25:49 17° E
Cosmos 962 Rocket 4.4 22:18:28 10° N 22:24:42 85° E 22:28:18 27° S
Cosmos 1624 Rocket 4.5 22:27:46 10° NNW 22:32:56 56° WSW 22:35:41 27° S
Cosmos 2228 2.9 22:30:52 10° N 22:35:09 69° E 22:35:49 57° SE
Cosmos 921 Rocket 3.0 22:31:24 10° NNW 22:35:52 78° WSW 22:37:02 47° S
Tiangong 2 3.4 22:35:31 10° NW 22:38:06 22° N 22:39:21 17° NE
MetOp-B 4.2 22:36:14 33° S 22:38:40 77° WSW 22:44:02 10° NNW
NOAA 11 4.3 22:35:58 30° S 22:38:42 70° WSW 22:44:08 10° NNW
H-2A R/B 2.3 22:38:01 42° ESE 22:39:04 50° ENE 22:43:56 10° N
SL-8 Rocket 4.0 22:35:32 10° N 22:41:48 71° E 22:44:11 40° SSE
Cosmos 2366 rocket 4.1 22:42:39 10° N 22:48:42 57° E 22:50:17 45° SE
CZ-3A R/B 3.8 22:48:03 10° W 22:49:40 13° WNW 22:50:46 10° NNW
Terra 2.6 22:55:30 36° ENE 22:55:36 36° ENE 22:59:58 10° N
Cosmos 1602 Rocket 3.4 22:57:24 78° E 22:57:24 78° E 23:01:41 10° N
Cosmos 2082 Rocket 2.9 22:52:35 10° SW 22:58:07 52° WNW 23:03:38 10° NNE
Meteor 1-4 Rocket 3.1 22:55:28 10° N 22:58:16 52° N 22:58:16 52° N
Cosmos 1269 Rocket 3.9 23:01:07 63° SSE 23:01:48 73° ESE 23:07:05 10° NNE
Cosmos 2278 4.2 22:57:59 10° NNW 23:03:30 52° WSW 23:05:11 39° SSW
SPOT 5 3.3 23:07:20 42° WSW 23:07:55 44° W 23:12:06 10° NNW
Cosmos 1420 Rocket 3.9 23:03:20 10° NNW 23:08:36 72° ENE 23:08:59 68° ESE
Cosmos 1048 Rocket 3.8 23:08:12 67° SSW 23:08:55 88° ESE 23:14:07 10° NNE
Cosmos 1959 Rocket 4.5 23:03:39 10° N 23:10:01 83° W 23:11:52 49° S
DMSP B5D2-2 3.9 23:05:53 10° NNE 23:11:12 86° ESE 23:11:57 66° S
Meteor 2-14 Rocket 4.3 23:08:47 10° N 23:14:51 73° E 23:15:45 62° SE
deb Chang Zheng 4 4.3 23:11:22 10° NNE 23:14:27 42° NE 23:14:27 42° NE
SL-08 RB Rocket 4.4 23:16:19 42° WSW 23:16:43 43° W 23:21:00 10° NNW
Cosmos 1656 3.9 23:12:17 10° NNW 23:17:37 56° WSW 23:18:28 50° SW
Meteor 1-22 Rocket 4.0 23:13:26 10° N 23:18:48 86° W 23:19:21 73° S
Cosmos 1697 Rocket 2.5 23:13:24 10° NNW 23:19:01 81° WSW 23:19:38 70° S
Cosmos 1809 Rocket 4.5 23:13:52 10° N 23:19:56 73° W 23:21:21 53° SSW
Lacrosse 5 3.7 23:25:30 19° ENE 23:25:30 19° ENE 23:27:00 10° NE
CARTOSAT-1 4.0 23:24:03 58° NNE 23:24:03 58° NNE 23:27:37 10° N
Cosmos 1452 Rocket 4.0 23:19:20 10° NNW 23:24:25 50° WSW 23:24:59 48° SW
Timation 2 Rocket 4.4 23:20:08 18° SW 23:24:51 59° WNW 23:30:57 10° NNE
USA 267 4.5 23:19:55 10° ENE 23:22:58 25° E 23:22:58 25° E
Cosmos 2360 4.4 23:22:12 10° NNW 23:27:50 57° ENE 23:28:04 56° ENE
SL-16 R/B 3.7 23:24:24 10° N 23:28:58 24° ENE 23:29:33 24° ENE
SPOT 1/Viking Rocket 4.3 23:30:09 40° WSW 23:30:51 43° W 23:35:45 10° NNW
Cosmos 1833 Rocket 4.4 23:26:19 10° WSW 23:31:10 30° WNW 23:36:04 10° N
IGS 5A 4.2 23:32:35 51° N 23:32:35 51° N 23:35:44 10° N
Cosmos 2218 Rocket 4.5 23:26:04 10° NNW 23:32:02 53° W 23:33:41 42° SW
Meteor 2-16 Rocket 4.3 23:31:21 10° N 23:37:31 84° W 23:38:10 73° SSW
ATLAS CENTAUR R/B 3.7 23:37:15 10° NNE 23:38:30 14° NNE 23:38:30 14° NNE
SL-19 R/B 4.1 23:34:44 10° N 23:39:59 73° WNW 23:40:12 72° W
Cosmos 1271 Rocket 4.2 23:38:07 10° N 23:40:35 37° NNW 23:40:35 37° NNW
Cosmos 2251 Rocket 4.4 23:47:57 39° NE 23:47:57 39° NE 23:51:36 10° NNE
H-2A R/B 2.9 23:48:48 50° NW 23:48:48 50° NW 23:52:25 10° NNW
